Weather History for Marshfield, MA

Change the Weather History Date:

Wednesday, March 27, 2013

  Actual Average (KPYM) Record (KPYM)
Temperature  
Mean Temperature 42 °F -  
Max Temperature 53 °F 51 °F 79 °F (1998)
Min Temperature 32 °F 30 °F 15 °F (1975)
Degree Days  
Heating Degree Days 22    
Moisture  
Dew Point 28 °F    
Average Humidity 57    
Maximum Humidity 76    
Minimum Humidity 35    
Precipitation  
Precipitation 0.00 in - - ()
Sea Level Pressure  
Sea Level Pressure 29.79 in    
Wind  
Wind Speed 4 mph (NW)    
Max Wind Speed 12 mph    
Max Gust Speed 20 mph    
Visibility 10 miles    
Events      
Averages and records for this station are not official NWS values.
T = Trace of Precipitation, MM = Missing Value Source: NWS Daily Summary

Daily Weather History Graph

Daily Weather History Graph

Search for Another Location

Airport:

Trip Planner

Search our weather history database for the weather conditions in past years. The results will help you decide how hot, cold, wet, or windy it might be!

Date:

Astronomy

Mar. 27, 2013 Rise Set
Actual Time 6:33 AM EDT 7:03 PM EDT
Civil Twilight 6:05 AM EDT 7:31 PM EDT
Nautical Twilight 5:32 AM EDT 8:04 PM EDT
Astronomical Twilight 4:58 AM EDT 8:38 PM EDT
Moon 7:44 PM EDT (3/27) 6:21 AM EDT (3/27)
Length of Visible Light 13h 25m
Length of Day
12h 29m
Full, 100% of the Moon is Illuminated
Mar 27
Full
Apr 3
Last Quarter
Apr 10
New
Apr 18
First Quarter
Apr 25
Full

Hourly Weather History & Observations

Time (EDT) Temp. Windchill Dew Point Humidity Pressure Visibility Wind Dir Wind Speed Gust Speed Precip Events Conditions
12:15 AM 37.4 °F 34.9 °F 23.0 °F 56% 29.78 in 10.0 mi West 3.5 mph - N/A   Clear
12:35 AM 37.4 °F 34.9 °F 23.0 °F 56% 29.78 in 10.0 mi West 3.5 mph - N/A   Clear
12:55 AM 35.6 °F - 24.8 °F 65% 29.78 in 10.0 mi Calm Calm - N/A   Clear
1:15 AM 33.8 °F - 24.8 °F 70% 29.79 in 10.0 mi Calm Calm - N/A   Clear
1:35 AM 33.8 °F - 24.8 °F 70% 29.79 in 10.0 mi Calm Calm - N/A   Clear
1:55 AM 33.8 °F - 24.8 °F 70% 29.79 in 10.0 mi Calm Calm - N/A   Clear
2:15 AM 33.8 °F - 24.8 °F 70% 29.78 in 10.0 mi Calm Calm - N/A   Clear
2:35 AM 33.8 °F 30.8 °F 24.8 °F 70% 29.79 in 10.0 mi SW 3.5 mph - N/A   Clear
2:55 AM 33.8 °F 30.8 °F 23.0 °F 65% 29.78 in 10.0 mi West 3.5 mph - N/A   Clear
3:15 AM 33.8 °F - 23.0 °F 65% 29.78 in 10.0 mi Calm Calm - N/A   Clear
3:35 AM 33.8 °F - 23.0 °F 65% 29.78 in 10.0 mi Calm Calm - N/A   Clear
3:55 AM 32.0 °F 28.7 °F 24.8 °F 75% 29.78 in 10.0 mi SW 3.5 mph - N/A   Clear
4:15 AM 33.8 °F - 23.0 °F 65% 29.78 in 10.0 mi Calm Calm - N/A   Clear
4:35 AM 32.0 °F - 24.8 °F 75% 29.78 in 10.0 mi Calm Calm - N/A   Clear
4:55 AM 32.0 °F - 24.8 °F 75% 29.78 in 10.0 mi Calm Calm - N/A   Clear
5:15 AM 32.0 °F - 24.8 °F 75% 29.78 in 10.0 mi Calm Calm - N/A   Clear
5:35 AM 32.0 °F - 24.8 °F 75% 29.78 in 10.0 mi Calm Calm - N/A   Clear
5:55 AM 32.0 °F - 24.8 °F 75% 29.79 in 10.0 mi Calm Calm - N/A   Clear
6:15 AM 32.0 °F - 24.8 °F 75% 29.79 in 10.0 mi Calm Calm - N/A   Clear
6:35 AM 32.0 °F - 24.8 °F 75% 29.79 in 10.0 mi Calm Calm - N/A   Clear
6:55 AM 32.0 °F - 23.0 °F 69% 29.80 in 10.0 mi Calm Calm - N/A   Clear
7:15 AM 33.8 °F 30.8 °F 23.0 °F 65% 29.80 in 10.0 mi West 3.5 mph - N/A   Clear
7:35 AM 35.6 °F 31.7 °F 23.0 °F 60% 29.80 in 10.0 mi West 4.6 mph - N/A   Clear
7:55 AM 37.4 °F 33.8 °F 23.0 °F 56% 29.80 in 10.0 mi West 4.6 mph - N/A   Clear
8:15 AM 39.2 °F 33.6 °F 24.8 °F 56% 29.81 in 10.0 mi West 8.1 mph - N/A   Clear
8:35 AM 42.8 °F 39.3 °F 24.8 °F 49% 29.81 in 10.0 mi WNW 5.8 mph - N/A   Clear
8:55 AM 44.6 °F 40.7 °F 24.8 °F 46% 29.80 in 10.0 mi West 6.9 mph - N/A   Clear
9:15 AM 44.6 °F 40.7 °F 26.6 °F 49% 29.81 in 10.0 mi WNW 6.9 mph - N/A   Clear
9:35 AM 46.4 °F 42.4 °F 26.6 °F 46% 29.81 in 10.0 mi WNW 8.1 mph - N/A   Clear
9:55 AM 48.2 °F - 26.6 °F 43% 29.80 in 10.0 mi WNW 6.9 mph 16.1 mph N/A   Clear
10:15 AM 48.2 °F - 26.6 °F 43% 29.80 in 10.0 mi WNW 6.9 mph 16.1 mph N/A   Clear
10:35 AM 48.2 °F - 26.6 °F 43% 29.80 in 10.0 mi NW 6.9 mph - N/A   Clear
10:55 AM 48.2 °F - 26.6 °F 43% 29.79 in 10.0 mi NW 8.1 mph - N/A   Clear
11:15 AM 50.0 °F - 26.6 °F 40% 29.79 in 10.0 mi WNW 5.8 mph - N/A   Clear
11:35 AM 51.8 °F - 26.6 °F 38% 29.78 in 10.0 mi West 11.5 mph 16.1 mph N/A   Clear
11:55 AM 51.8 °F - 26.6 °F 38% 29.78 in 10.0 mi NW 6.9 mph 18.4 mph N/A   Clear
12:15 PM 51.8 °F - 24.8 °F 35% 29.78 in 10.0 mi NW 5.8 mph 16.1 mph N/A   Partly Cloudy
12:35 PM 51.8 °F - 24.8 °F 35% 29.77 in 10.0 mi NW 8.1 mph 18.4 mph N/A   Partly Cloudy
12:55 PM 51.8 °F - 24.8 °F 35% 29.77 in 10.0 mi NW 8.1 mph - N/A   Partly Cloudy
1:15 PM 53.6 °F - 26.6 °F 35% 29.76 in 10.0 mi NNW 6.9 mph - N/A   Scattered Clouds
1:35 PM 51.8 °F - 26.6 °F 38% 29.76 in 10.0 mi NNW 6.9 mph - N/A   Scattered Clouds
1:55 PM 51.8 °F - 24.8 °F 35% 29.76 in 10.0 mi North 8.1 mph 16.1 mph N/A   Mostly Cloudy
2:15 PM 51.8 °F - 26.6 °F 38% 29.76 in 10.0 mi North 8.1 mph - N/A   Mostly Cloudy
2:35 PM 51.8 °F - 26.6 °F 38% 29.75 in 10.0 mi WNW 6.9 mph - N/A   Mostly Cloudy
2:55 PM 51.8 °F - 24.8 °F 35% 29.75 in 10.0 mi West 8.1 mph - N/A   Scattered Clouds
3:15 PM 51.8 °F - 26.6 °F 38% 29.75 in 10.0 mi WNW 8.1 mph - N/A   Mostly Cloudy
3:35 PM 51.8 °F - 26.6 °F 38% 29.75 in 10.0 mi WSW 5.8 mph - N/A   Scattered Clouds
3:55 PM 51.8 °F - 24.8 °F 35% 29.75 in 10.0 mi WNW 9.2 mph - N/A   Scattered Clouds
4:15 PM 51.8 °F - 28.4 °F 41% 29.75 in 10.0 mi WNW 3.5 mph - N/A   Scattered Clouds
4:35 PM 51.8 °F - 24.8 °F 35% 29.75 in 10.0 mi NW 8.1 mph - N/A   Partly Cloudy
4:55 PM 51.8 °F - 26.6 °F 38% 29.76 in 10.0 mi NNW 6.9 mph - N/A   Scattered Clouds
5:15 PM 50.0 °F - 30.2 °F 47% 29.76 in 10.0 mi WNW 9.2 mph - N/A   Partly Cloudy
5:35 PM 51.8 °F - 26.6 °F 38% 29.76 in 10.0 mi WNW 6.9 mph - N/A   Partly Cloudy
5:55 PM 51.8 °F - 26.6 °F 38% 29.77 in 10.0 mi NNW 4.6 mph - N/A   Scattered Clouds
6:15 PM 50.0 °F - 28.4 °F 43% 29.78 in 10.0 mi NNW 4.6 mph - N/A   Mostly Cloudy
6:35 PM 48.2 °F - 32.0 °F 54% 29.79 in 10.0 mi NNW 4.6 mph - N/A   Mostly Cloudy
6:55 PM 48.2 °F - 30.2 °F 50% 29.80 in 10.0 mi NNW 5.8 mph 19.6 mph N/A   Scattered Clouds
7:15 PM 44.6 °F 42.2 °F 33.8 °F 66% 29.82 in 10.0 mi NNW 4.6 mph - N/A   Mostly Cloudy
7:35 PM 44.6 °F 41.4 °F 33.8 °F 66% 29.82 in 10.0 mi North 5.8 mph - N/A   Scattered Clouds
7:55 PM 42.8 °F 41.1 °F 33.8 °F 70% 29.83 in 10.0 mi NNE 3.5 mph - N/A   Clear
8:15 PM 42.8 °F 41.1 °F 35.6 °F 76% 29.84 in 10.0 mi NNE 3.5 mph - N/A   Scattered Clouds
8:35 PM 42.8 °F - 35.6 °F 76% 29.84 in 10.0 mi Calm Calm - N/A   Scattered Clouds
8:55 PM 42.8 °F - 35.6 °F 76% 29.85 in 10.0 mi Calm Calm - N/A   Partly Cloudy
9:15 PM 42.8 °F - 35.6 °F 76% 29.86 in 10.0 mi Calm Calm - N/A   Clear
9:35 PM 42.8 °F 41.1 °F 35.6 °F 76% 29.86 in 10.0 mi NNW 3.5 mph - N/A   Partly Cloudy
9:55 PM 42.8 °F 41.1 °F 35.6 °F 76% 29.86 in 10.0 mi WNW 3.5 mph - N/A   Clear
10:15 PM 42.8 °F 38.6 °F 33.8 °F 70% 29.86 in 10.0 mi NW 6.9 mph - N/A   Partly Cloudy
10:35 PM 42.8 °F 39.3 °F 35.6 °F 76% 29.86 in 10.0 mi NW 5.8 mph - N/A   Scattered Clouds
10:55 PM 42.8 °F 40.1 °F 35.6 °F 76% 29.86 in 10.0 mi NNW 4.6 mph - N/A   Mostly Cloudy
11:15 PM 42.8 °F 38.6 °F 35.6 °F 76% 29.86 in 10.0 mi NW 6.9 mph - N/A   Overcast
11:35 PM 42.8 °F 38.0 °F 35.6 °F 76% 29.86 in 10.0 mi NW 8.1 mph - N/A   Light Drizzle
11:55 PM 42.8 °F 40.1 °F 35.6 °F 76% 29.86 in 10.0 mi NW 4.6 mph - N/A   Overcast